Weather History for Awg-1 Sea, Netherlands

Change the Weather History Date:

Saturday, February 1, 2014

  Actual Average Record
Temperature  
Mean Temperature 39 °F -  
Max Temperature 44 °F - - ()
Min Temperature 34 °F - - ()
Degree Days  
Heating Degree Days 26    
Moisture  
Dew Point 37 °F    
Average Humidity 82    
Maximum Humidity 93    
Minimum Humidity 65    
Precipitation  
Precipitation 0.00 in - - ()
Sea Level Pressure  
Sea Level Pressure 29.35 in    
Wind  
Wind Speed 30 mph ()    
Max Wind Speed 39 mph    
Max Gust Speed -    
Visibility 6.6 miles    
Events Rain    
T = Trace of Precipitation, MM = Missing Value Source: Averaged Metar Reports

Daily Weather History Graph

Daily Weather History Graph

Search for Another Location

Airport:

Trip Planner

Search our weather history database for the weather conditions in past years. The results will help you decide how hot, cold, wet, or windy it might be!

Date:

Astronomy

Feb. 01, 2014 Rise Set
Actual Time 8:21 AM CET 5:18 PM CET
Civil Twilight 7:43 AM CET 5:56 PM CET
Nautical Twilight 7:01 AM CET 6:39 PM CET
Astronomical Twilight 6:20 AM CET 7:19 PM CET
Moon 8:38 AM CET (2/1) 8:02 PM CET (2/1)
Length of Visible Light 10h 13m
Length of Day
8h 57m
Waxing Crescent, 4% of the Moon is Illuminated
Feb 1
Waxing Crescent
Feb 6
First Quarter
Feb 15
Full
Feb 22
Last Quarter
Mar 1
New

Hourly Weather History & Observations

Time (CET) Temp. Windchill Dew Point Humidity Pressure Visibility Wind Dir Wind Speed Gust Speed Precip Events Conditions
12:00 AM 40 °F - 33 °F 69% 29.47 in 4 mi South 24.6 mph - - Rain Drizzle
12:25 AM 39.2 °F 26.6 °F 33.8 °F 81% 29.42 in 5.0 mi SE 34.5 mph - N/A Rain Light Rain
12:55 AM 39.2 °F 27.0 °F 33.8 °F 81% 29.42 in 6.2 mi SE 32.2 mph - N/A   Mostly Cloudy
1:00 AM 40 °F - 33 °F 69% 29.43 in 6 mi SE 26.8 mph - - Rain Rain
1:25 AM 41.0 °F 29.7 °F 33.8 °F 76% 29.42 in 5.6 mi SE 31.1 mph - N/A   Mostly Cloudy
1:55 AM 41.0 °F 29.0 °F 33.8 °F 76% 29.39 in 5.0 mi South 35.7 mph - N/A   Drizzle
2:00 AM 40 °F - 34 °F 72% 29.39 in 4 mi SSE 31.3 mph - - Rain Drizzle
2:25 AM 39.2 °F 26.3 °F 35.6 °F 87% 29.36 in - SSE 36.8 mph - N/A Rain Light Rain
2:55 AM 39.2 °F 26.5 °F 35.6 °F 87% 29.33 in 3.7 mi SE 35.7 mph - N/A   Drizzle
3:00 AM 40 °F - 36 °F 78% 29.34 in 3 mi SE 29.1 mph - - Rain Heavy Rain
3:25 AM 39.2 °F 26.3 °F 35.6 °F 87% 29.33 in 3.7 mi SE 36.8 mph - N/A   Drizzle
3:55 AM 39.2 °F 26.8 °F 35.6 °F 87% 29.30 in 3.1 mi SE 33.4 mph - N/A Rain Light Rain
4:00 AM 39 °F - 36 °F 84% 29.31 in 3 mi SSE 29.1 mph - - Rain Light Rain
4:25 AM 39.2 °F 26.5 °F 35.6 °F 87% 29.27 in 3.7 mi SE 35.7 mph - N/A Rain Light Rain
4:55 AM 41.0 °F 28.8 °F 35.6 °F 81% 29.27 in 3.7 mi South 36.8 mph - N/A   Light Drizzle
5:00 AM 39 °F - 36 °F 84% 29.28 in 4 mi SSE 29.1 mph - - Rain Light Drizzle
5:25 AM 39.2 °F 26.8 °F 35.6 °F 87% 29.24 in 3.7 mi SE 33.4 mph - N/A   Light Drizzle
5:55 AM 39.2 °F 26.6 °F 35.6 °F 87% 29.24 in 3.7 mi SE 34.5 mph - N/A   Light Drizzle
6:00 AM 39 °F - 36 °F 84% 29.25 in 4 mi SE 29.1 mph - - Rain Light Drizzle
6:25 AM 39.2 °F 26.6 °F 35.6 °F 87% 29.24 in - South 34.5 mph - N/A Rain Light Rain
6:55 AM 39.2 °F 26.6 °F 35.6 °F 87% 29.21 in - South 34.5 mph - N/A Rain Light Rain
7:00 AM 40 °F - 37 °F 83% 29.23 in 3 mi South 29.1 mph - - Rain Heavy Rain
7:25 AM 39.2 °F 26.6 °F 37.4 °F 93% 29.21 in - South 34.5 mph - N/A Rain Light Rain
7:55 AM 41.0 °F 29.0 °F 37.4 °F 87% 29.21 in - South 35.7 mph - N/A Rain Light Rain
8:00 AM 40 °F - 37 °F 86% 29.22 in 2 mi South 31.3 mph - - Rain Light Rain
8:25 AM 41.0 °F 28.6 °F 37.4 °F 87% 29.21 in - South 38.0 mph - N/A   Drizzle
8:55 AM 41.0 °F 28.8 °F 37.4 °F 87% 29.21 in 4.3 mi South 36.8 mph - N/A   Light Drizzle
9:00 AM 41 °F - 37 °F 80% 29.22 in 4 mi South 31.3 mph - - Rain Drizzle
9:25 AM 41.0 °F 28.6 °F 37.4 °F 87% 29.21 in 3.1 mi South 38.0 mph - N/A Rain Light Rain
9:55 AM 41.0 °F 28.5 °F 37.4 °F 87% 29.21 in 3.7 mi South 39.1 mph - N/A   Drizzle
10:00 AM 41 °F - 38 °F 85% 29.23 in 3 mi South 33.6 mph - - Rain Light Rain
10:25 AM 41.0 °F 28.6 °F 39.2 °F 93% 29.21 in - South 38.0 mph - N/A Rain Light Rain
10:55 AM 41.0 °F 28.5 °F 39.2 °F 93% 29.21 in 3.7 mi South 39.1 mph - N/A Rain Rain
11:00 AM 41 °F - 39 °F 91% 29.23 in 3 mi South 33.6 mph - - Rain Light Rain
11:25 AM 41.0 °F 28.8 °F 39.2 °F 93% 29.24 in - SSW 36.8 mph - N/A Rain Light Rain
11:55 AM 42.8 °F 31.0 °F 41.0 °F 93% 29.24 in 4.3 mi SSW 39.1 mph - N/A Rain Light Rain
12:00 PM 43 °F - 41 °F 88% 29.27 in 14 mi SSW 31.3 mph - - Rain Light Rain
12:25 PM 42.8 °F 31.3 °F 41.0 °F 93% 29.27 in 6.2 mi SSW 36.8 mph - N/A   Mostly Cloudy
12:55 PM 42.8 °F 31.4 °F 41.0 °F 93% 29.27 in 6.2 mi SSW 35.7 mph - N/A   Mostly Cloudy
1:00 PM 44 °F - 41 °F 85% 29.29 in 19 mi SSW 29.1 mph - - Rain Rain
1:25 PM 44.6 °F 33.9 °F 41.0 °F 87% 29.30 in 6.2 mi SSW 35.7 mph - N/A   Mostly Cloudy
1:55 PM 44.6 °F 34.1 °F 41.0 °F 87% 29.30 in 6.2 mi SSW 34.5 mph - N/A   Mostly Cloudy
2:00 PM 44 °F - 41 °F 85% 29.32 in 22 mi SSW 26.8 mph - -   Scattered Clouds
2:25 PM 44.6 °F 34.6 °F 41.0 °F 87% 29.33 in 6.2 mi SSW 31.1 mph - N/A   Mostly Cloudy
2:55 PM 44.6 °F 34.4 °F 41.0 °F 87% 29.33 in 6.2 mi SSW 32.2 mph - N/A   Mostly Cloudy
3:00 PM 44 °F - 40 °F 82% 29.34 in 22 mi SSW 26.8 mph - -   Scattered Clouds
3:25 PM 44.6 °F 34.7 °F 41.0 °F 87% 29.36 in 6.2 mi SSW 29.9 mph - N/A   Scattered Clouds
3:55 PM 44.6 °F 34.9 °F 39.2 °F 81% 29.36 in 6.2 mi SSW 28.8 mph - N/A   Partly Cloudy
4:00 PM 44 °F - 40 °F 79% 29.39 in 14 mi SSW 22.4 mph - -   Mostly Cloudy
4:25 PM 44.6 °F 35.1 °F 39.2 °F 81% 29.39 in 6.2 mi SSW 27.6 mph - N/A   Unknown
4:55 PM 44.6 °F 34.4 °F 37.4 °F 76% 29.39 in 6.2 mi SSW 32.2 mph - N/A   Unknown
5:00 PM 44 °F - 38 °F 71% 29.42 in 14 mi SSW 26.8 mph - -   Mostly Cloudy
5:25 PM 44.6 °F 34.9 °F 37.4 °F 76% 29.42 in 6.2 mi SSW 28.8 mph - N/A   Unknown
5:55 PM 42.8 °F 32.1 °F 35.6 °F 76% 29.42 in 6.2 mi Variable 31.1 mph - N/A   Unknown
6:00 PM 43 °F - 35 °F 65% 29.44 in 15 mi SSW 26.8 mph - -  
6:25 PM 42.8 °F 31.9 °F 35.6 °F 76% 29.44 in 6.2 mi SSW 32.2 mph - N/A   Unknown
6:55 PM 42.8 °F 31.9 °F 33.8 °F 70% 29.44 in 6.2 mi SSW 32.2 mph - N/A   Unknown
7:00 PM 42 °F - 35 °F 66% 29.46 in 15 mi South 24.6 mph - -   Partly Cloudy
7:25 PM 41.0 °F 29.5 °F 35.6 °F 81% 29.44 in 6.2 mi South 32.2 mph - N/A   Unknown
7:55 PM 42.8 °F 31.8 °F 35.6 °F 76% 29.47 in 6.2 mi SSW 33.4 mph - N/A   Unknown
8:00 PM 42 °F - 35 °F 68% 29.49 in 16 mi South 26.8 mph - -   Scattered Clouds
8:25 PM 42.8 °F 31.4 °F 35.6 °F 76% 29.47 in 6.2 mi South 35.7 mph - N/A   Unknown
8:55 PM 42.8 °F 31.4 °F 35.6 °F 76% 29.47 in 6.2 mi SSW 35.7 mph - N/A   Unknown
9:00 PM 42 °F - 35 °F 67% 29.49 in 17 mi SSW 31.3 mph - -   Scattered Clouds
9:25 PM 42.8 °F 31.4 °F 33.8 °F 70% 29.47 in 6.2 mi SSW 35.7 mph - N/A   Unknown
9:55 PM 41.0 °F 29.1 °F 33.8 °F 76% 29.47 in 6.2 mi SSW 34.5 mph - N/A   Unknown
10:00 PM 41 °F - 35 °F 70% 29.51 in 15 mi South 29.1 mph - -   Scattered Clouds
10:25 PM 41.0 °F 29.1 °F 35.6 °F 81% 29.50 in 6.2 mi South 34.5 mph - N/A   Unknown
10:55 PM 41.0 °F 29.3 °F 35.6 °F 81% 29.50 in 6.2 mi South 33.4 mph - N/A   Unknown
11:00 PM 41 °F - 35 °F 72% 29.51 in 14 mi South 29.1 mph - -  
11:25 PM 41.0 °F 29.0 °F 35.6 °F 81% 29.50 in 6.2 mi South 35.7 mph - N/A   Unknown
11:55 PM 41.0 °F 28.5 °F 35.6 °F 81% 29.50 in 6.2 mi South 39.1 mph - N/A   Unknown